ASL01D LDDU-LWSK

Flight info

Callsign ASL01D
Flight time 0h 48m
Altitude 23000
Route MOKUN DCT RETRA DCT RINAV DCT ENFAR DCT GOSTI
Aircraft A320/M-SDE3FGHIRWY/LB1

Departure

Time 2026-04-29 14:01
Airport Dubrovnik Ruđer Bošković Airport (LDDU)

Arrival

Time 2026-04-29 14:49
Airport Skopje International Airport (LWSK)
Time Latitude Longitude Altitude Speed Heading
2026-04-29 13:37 42.56109 18.26252 522 ft 0 kts 209°
2026-04-29 13:52 42.56129 18.26270 522 ft 4 kts 225°
2026-04-29 13:52 42.56144 18.26299 522 ft 4 kts 253°
2026-04-29 13:52 42.56145 18.26333 522 ft 4 kts 292°
2026-04-29 13:52 42.56143 18.26340 522 ft 0 kts 297°
2026-04-29 13:55 42.56144 18.26337 522 ft 1 kts 297°
2026-04-29 13:55 42.56147 18.26330 522 ft 1 kts 297°
2026-04-29 13:56 42.56151 18.26318 522 ft 2 kts 297°
2026-04-29 13:56 42.56164 18.26287 522 ft 6 kts 297°
2026-04-29 13:56 42.56189 18.26223 523 ft 9 kts 298°
2026-04-29 13:56 42.56224 18.26132 524 ft 13 kts 297°
2026-04-29 13:57 42.56272 18.26011 525 ft 16 kts 298°
2026-04-29 13:57 42.56329 18.25864 526 ft 19 kts 297°
2026-04-29 13:57 42.56398 18.25695 528 ft 22 kts 299°
2026-04-29 13:57 42.56475 18.25503 530 ft 25 kts 298°
2026-04-29 13:58 42.56561 18.25286 531 ft 27 kts 297°
2026-04-29 13:58 42.56648 18.25057 533 ft 28 kts 297°
2026-04-29 13:58 42.56734 18.24842 536 ft 18 kts 300°
2026-04-29 13:58 42.56790 18.24716 537 ft 6 kts 308°
2026-04-29 13:59 42.56796 18.24707 537 ft 0 kts 312°
2026-04-29 13:59 42.56813 18.24689 537 ft 9 kts 328°
2026-04-29 13:59 42.56888 18.24686 538 ft 13 kts 20°
2026-04-29 13:59 42.56944 18.24781 538 ft 14 kts 88°
2026-04-29 14:00 42.56928 18.24835 537 ft 0 kts 119°
2026-04-29 14:00 42.56927 18.24837 537 ft 3 kts 119°
2026-04-29 14:00 42.56792 18.25165 532 ft 83 kts 118°
2026-04-29 14:00 42.56401 18.26155 527 ft 151 kts 117°
2026-04-29 14:01 42.55886 18.27497 1123 ft 164 kts 118°
2026-04-29 14:01 42.55397 18.28945 1969 ft 175 kts 119°
2026-04-29 14:01 42.54794 18.30483 2556 ft 192 kts 121°
2026-04-29 14:01 42.54102 18.32166 2855 ft 214 kts 122°
2026-04-29 14:02 42.53134 18.33814 3243 ft 237 kts 140°
2026-04-29 14:02 42.51672 18.35007 3816 ft 253 kts 161°
2026-04-29 14:02 42.49926 18.35436 4635 ft 259 kts 182°
2026-04-29 14:02 42.48153 18.34965 5489 ft 263 kts 204°
2026-04-29 14:03 42.46621 18.33613 6317 ft 266 kts 223°
2026-04-29 14:03 42.45268 18.31884 7104 ft 269 kts 224°
2026-04-29 14:03 42.43899 18.30132 7906 ft 272 kts 224°
2026-04-29 14:03 42.42508 18.28365 8685 ft 276 kts 222°
2026-04-29 14:04 42.40848 18.27019 9423 ft 284 kts 200°
2026-04-29 14:04 42.38893 18.26713 10128 ft 293 kts 174°
2026-04-29 14:04 42.36950 18.27608 10690 ft 306 kts 149°
2026-04-29 14:04 42.35421 18.29735 10874 ft 330 kts 119°
2026-04-29 14:05 42.34695 18.32779 11013 ft 352 kts 101°
2026-04-29 14:05 42.34275 18.36109 11384 ft 364 kts 98°
2026-04-29 14:05 42.33919 18.39530 11956 ft 370 kts 97°
2026-04-29 14:05 42.33576 18.43005 12556 ft 375 kts 97°
2026-04-29 14:06 42.33222 18.46514 13162 ft 379 kts 97°
2026-04-29 14:06 42.32843 18.50063 13767 ft 384 kts 98°
2026-04-29 14:06 42.32441 18.53645 14324 ft 388 kts 98°
2026-04-29 14:06 42.32020 18.57265 14838 ft 392 kts 98°
2026-04-29 14:07 42.31586 18.60923 15361 ft 396 kts 98°
2026-04-29 14:07 42.31157 18.64530 16396 ft 380 kts 98°
2026-04-29 14:07 42.30749 18.67962 17689 ft 359 kts 99°
2026-04-29 14:07 42.30359 18.71240 18677 ft 351 kts 99°
2026-04-29 14:08 42.29972 18.74492 19262 ft 352 kts 99°
2026-04-29 14:08 42.29582 18.77762 19797 ft 354 kts 99°
2026-04-29 14:08 42.29191 18.81063 20307 ft 357 kts 98°
2026-04-29 14:08 42.28797 18.84386 20788 ft 360 kts 98°
2026-04-29 14:09 42.28397 18.87738 21279 ft 363 kts 98°
2026-04-29 14:09 42.27990 18.91121 21754 ft 366 kts 99°
2026-04-29 14:09 42.27579 18.94530 22221 ft 370 kts 99°
2026-04-29 14:09 42.27167 18.97968 22687 ft 372 kts 99°
2026-04-29 14:10 42.26753 19.01427 23000 ft 375 kts 99°
2026-04-29 14:10 42.26333 19.04913 23056 ft 376 kts 99°
2026-04-29 14:10 42.25911 19.08402 23057 ft 376 kts 99°
2026-04-29 14:10 42.25488 19.11883 23057 ft 376 kts 99°
2026-04-29 14:11 42.25062 19.15369 23056 ft 377 kts 99°
2026-04-29 14:11 42.24634 19.18862 23056 ft 377 kts 99°
2026-04-29 14:11 42.24205 19.22364 23056 ft 378 kts 99°
2026-04-29 14:11 42.23777 19.25853 23056 ft 378 kts 99°
2026-04-29 14:12 42.23265 19.29283 23055 ft 378 kts 105°
2026-04-29 14:12 42.22435 19.32695 23055 ft 377 kts 113°
2026-04-29 14:12 42.21338 19.35847 23057 ft 376 kts 121°
2026-04-29 14:12 42.19959 19.38840 23057 ft 375 kts 128°
2026-04-29 14:13 42.18405 19.41724 23059 ft 375 kts 128°
2026-04-29 14:13 42.16869 19.44572 23060 ft 375 kts 128°
2026-04-29 14:13 42.15351 19.47390 23061 ft 376 kts 128°
2026-04-29 14:13 42.13818 19.50241 23049 ft 376 kts 128°
2026-04-29 14:14 42.12285 19.53094 23056 ft 376 kts 128°
2026-04-29 14:14 42.11995 19.53636 23058 ft 376 kts 128°
2026-04-29 14:22 42.11956 19.53707 23063 ft 376 kts 128°
2026-04-29 14:22 42.10424 19.56558 23068 ft 376 kts 128°
2026-04-29 14:22 42.08888 19.59409 23072 ft 376 kts 128°
2026-04-29 14:22 42.07351 19.62255 23075 ft 376 kts 128°
2026-04-29 14:23 42.05814 19.65097 23077 ft 376 kts 128°
2026-04-29 14:23 42.04296 19.67903 23081 ft 376 kts 128°
2026-04-29 14:23 42.02756 19.70744 23082 ft 376 kts 128°
2026-04-29 14:23 42.01215 19.73586 23079 ft 376 kts 128°
2026-04-29 14:24 41.99683 19.76431 23081 ft 376 kts 126°
2026-04-29 14:24 41.98322 19.79484 23080 ft 377 kts 118°
2026-04-29 14:24 41.97268 19.82658 23085 ft 377 kts 110°
2026-04-29 14:24 41.96333 19.85995 23073 ft 389 kts 111°
2026-04-29 14:25 41.95347 19.89473 23075 ft 406 kts 111°
2026-04-29 14:25 41.94313 19.93088 23069 ft 423 kts 111°
2026-04-29 14:25 41.93237 19.96839 23071 ft 437 kts 111°
2026-04-29 14:25 41.92124 20.00718 23072 ft 451 kts 111°
2026-04-29 14:26 41.90979 20.04708 23070 ft 465 kts 111°
2026-04-29 14:26 41.89804 20.08793 23062 ft 471 kts 111°
2026-04-29 14:26 41.88611 20.12930 23072 ft 474 kts 111°
2026-04-29 14:26 41.87416 20.17056 23065 ft 474 kts 111°
2026-04-29 14:27 41.86224 20.21185 23071 ft 475 kts 111°
2026-04-29 14:27 41.85032 20.25319 23071 ft 475 kts 111°
2026-04-29 14:27 41.83839 20.29452 23067 ft 474 kts 111°
2026-04-29 14:28 41.81498 20.37533 22723 ft 458 kts 111°
2026-04-29 14:28 41.80345 20.41489 22457 ft 454 kts 111°
2026-04-29 14:28 41.79197 20.45412 22189 ft 451 kts 111°
2026-04-29 14:28 41.78100 20.49328 21651 ft 446 kts 107°
2026-04-29 14:29 41.77423 20.53356 21130 ft 441 kts 96°
2026-04-29 14:29 41.77224 20.57432 20540 ft 436 kts 89°
2026-04-29 14:29 41.77222 20.61552 19400 ft 446 kts 87°
2026-04-29 14:29 41.77301 20.65738 18573 ft 449 kts 86°
2026-04-29 14:30 41.77422 20.69876 18106 ft 441 kts 85°
2026-04-29 14:30 41.77549 20.73955 17505 ft 436 kts 86°
2026-04-29 14:30 41.77660 20.77986 16918 ft 431 kts 86°
2026-04-29 14:30 41.77748 20.81976 16375 ft 426 kts 87°
2026-04-29 14:31 41.77824 20.85920 15829 ft 420 kts 88°
2026-04-29 14:31 41.77894 20.89810 15299 ft 415 kts 88°
2026-04-29 14:31 41.77957 20.93641 14778 ft 409 kts 88°
2026-04-29 14:31 41.78015 20.97431 14273 ft 404 kts 88°
2026-04-29 14:32 41.78075 21.01177 13719 ft 400 kts 89°
2026-04-29 14:32 41.78136 21.04833 13092 ft 396 kts 89°
2026-04-29 14:32 41.78199 21.08503 12517 ft 390 kts 89°
2026-04-29 14:32 41.78255 21.12068 12361 ft 375 kts 89°
2026-04-29 14:33 41.78306 21.15482 12222 ft 359 kts 89°
2026-04-29 14:33 41.78357 21.18772 12094 ft 347 kts 89°
2026-04-29 14:33 41.78406 21.21941 11965 ft 335 kts 89°
2026-04-29 14:33 41.78449 21.25018 11840 ft 325 kts 89°
2026-04-29 14:34 41.78492 21.28014 11644 ft 319 kts 89°
2026-04-29 14:34 41.78519 21.30019 11448 ft 317 kts 89°
2026-04-29 14:34 41.78557 21.32954 11050 ft 315 kts 89°
2026-04-29 14:34 41.78597 21.35890 10732 ft 314 kts 89°
2026-04-29 14:35 41.78634 21.38770 10352 ft 313 kts 89°
2026-04-29 14:35 41.78669 21.41670 10043 ft 310 kts 89°
2026-04-29 14:35 41.78705 21.44564 9700 ft 309 kts 89°
2026-04-29 14:35 41.78742 21.47462 9066 ft 314 kts 89°
2026-04-29 14:36 41.78778 21.50402 8320 ft 314 kts 89°
2026-04-29 14:36 41.78813 21.53327 7596 ft 314 kts 89°
2026-04-29 14:36 41.78848 21.56252 6883 ft 313 kts 89°
2026-04-29 14:36 41.78882 21.59160 6153 ft 312 kts 89°
2026-04-29 14:37 41.78919 21.62076 5322 ft 313 kts 88°
2026-04-29 14:37 41.79145 21.64952 4517 ft 310 kts 70°
2026-04-29 14:37 41.80321 21.67240 4129 ft 293 kts 37°
2026-04-29 14:37 41.82086 21.68211 4002 ft 270 kts
2026-04-29 14:38 41.83843 21.67844 3993 ft 245 kts 339°
2026-04-29 14:38 41.85141 21.66577 3995 ft 220 kts 314°
2026-04-29 14:38 41.86311 21.65439 4003 ft 200 kts 346°
2026-04-29 14:38 41.87591 21.65103 4009 ft 176 kts 348°
2026-04-29 14:39 41.88737 21.64721 4003 ft 166 kts 346°
2026-04-29 14:39 41.89837 21.64342 4003 ft 161 kts 346°
2026-04-29 14:39 41.90921 21.63968 4006 ft 161 kts 346°
2026-04-29 14:39 41.92001 21.63595 4008 ft 161 kts 346°
2026-04-29 14:40 41.93183 21.63185 4005 ft 191 kts 346°
2026-04-29 14:40 41.94574 21.62720 4018 ft 218 kts 351°
2026-04-29 14:40 41.96067 21.62915 4010 ft 224 kts 24°
2026-04-29 14:40 41.97261 21.64222 4009 ft 225 kts 58°
2026-04-29 14:41 41.97716 21.66211 4011 ft 227 kts 91°
2026-04-29 14:41 41.97275 21.68219 4009 ft 228 kts 124°
2026-04-29 14:41 41.96070 21.69589 4009 ft 230 kts 158°
2026-04-29 14:41 41.94500 21.69852 4010 ft 231 kts 191°
2026-04-29 14:42 41.93022 21.69008 4012 ft 232 kts 212°
2026-04-29 14:42 41.91678 21.67810 4009 ft 232 kts 215°
2026-04-29 14:42 41.90365 21.66565 4008 ft 231 kts 216°
2026-04-29 14:42 41.89002 21.65412 4006 ft 231 kts 199°
2026-04-29 14:43 41.87426 21.65019 4011 ft 232 kts 184°
2026-04-29 14:43 41.85815 21.64890 4009 ft 231 kts 182°
2026-04-29 14:43 41.84210 21.64800 4009 ft 231 kts 181°
2026-04-29 14:43 41.82609 21.64746 4010 ft 230 kts 175°
2026-04-29 14:44 41.81088 21.65218 4028 ft 217 kts 159°
2026-04-29 14:44 41.79899 21.66274 4010 ft 199 kts 126°
2026-04-29 14:44 41.79489 21.67904 3995 ft 177 kts 85°
2026-04-29 14:44 41.79956 21.69308 3994 ft 164 kts 43°
2026-04-29 14:45 41.80933 21.69947 3999 ft 160 kts
2026-04-29 14:45 41.81980 21.69514 4008 ft 161 kts 329°
2026-04-29 14:45 41.82965 21.68803 4003 ft 160 kts 338°
2026-04-29 14:45 41.83986 21.68240 3907 ft 157 kts 339°
2026-04-29 14:46 41.85007 21.67697 3586 ft 158 kts 340°
2026-04-29 14:46 41.86008 21.67095 3308 ft 156 kts 333°
2026-04-29 14:46 41.86921 21.66317 3028 ft 157 kts 329°
2026-04-29 14:46 41.87855 21.65580 2688 ft 156 kts 336°
2026-04-29 14:47 41.88852 21.65018 2456 ft 152 kts 342°
2026-04-29 14:47 41.89846 21.64504 2191 ft 153 kts 341°
2026-04-29 14:47 41.90860 21.64040 1859 ft 154 kts 345°
2026-04-29 14:47 41.91885 21.63650 1513 ft 153 kts 346°
2026-04-29 14:48 41.92894 21.63287 1298 ft 148 kts 347°
2026-04-29 14:48 41.93885 21.62922 1079 ft 148 kts 345°
2026-04-29 14:48 41.94884 21.62584 829 ft 147 kts 347°
2026-04-29 14:48 41.95810 21.62286 786 ft 122 kts 346°
2026-04-29 14:49 41.96266 21.62111 789 ft 51 kts 345°
2026-04-29 14:49 41.96485 21.62067 790 ft 18 kts 31°
2026-04-29 14:49 41.96509 21.62157 792 ft 10 kts 75°
2026-04-29 14:49 41.96520 21.62253 793 ft 11 kts 104°
2026-04-29 14:50 41.96449 21.62306 793 ft 13 kts 165°
2026-04-29 14:50 41.96353 21.62343 792 ft 16 kts 164°
2026-04-29 14:50 41.96239 21.62383 792 ft 18 kts 166°
2026-04-29 14:50 41.96133 21.62428 792 ft 12 kts 134°
2026-04-29 14:51 41.96100 21.62512 793 ft 11 kts 158°
2026-04-29 14:51 41.96018 21.62540 793 ft 12 kts 164°
2026-04-29 14:51 41.95994 21.62607 793 ft 2 kts 80°
2026-04-29 14:51 41.95995 21.62612 793 ft 0 kts 78°